Time,TemperatureF,DewpointF,PressureIn,WindDirection,WindDirectionDegrees,WindSpeedMPH,WindSpeedGustMPH,Humidity,HourlyPrecipIn,Conditions,Clouds,dailyrainin,SoftwareType,DateUTC
2013-01-27 00:03:00,19.9,14.0,30.47,WNW,290,1.0,-999.0,79,-99.99,,,0.00,weatherlink.com 1.10,2013-01-27 05:03:00,
2013-01-27 00:19:00,19.9,14.0,30.48,WNW,290,0.0,-999.0,79,-99.99,,,0.00,weatherlink.com 1.10,2013-01-27 05:19:00,
2013-01-27 00:34:00,19.8,14.0,30.48,WNW,290,1.0,-999.0,79,-99.99,,,0.00,weatherlink.com 1.10,2013-01-27 05:34:00,
2013-01-27 00:49:00,19.7,15.0,30.48,WNW,290,1.0,-999.0,80,-99.99,,,0.00,weatherlink.com 1.10,2013-01-27 05:49:00,
2013-01-27 01:04:00,19.5,15.0,30.48,WNW,290,0.0,-999.0,81,-99.99,,,0.00,weatherlink.com 1.10,2013-01-27 06:04:00,
2013-01-27 01:19:00,19.3,15.0,30.48,WNW,290,0.0,-999.0,82,-99.99,,,0.00,weatherlink.com 1.10,2013-01-27 06:19:00,
2013-01-27 01:34:00,19.3,15.0,30.48,WNW,290,0.0,-999.0,83,-99.99,,,0.00,weatherlink.com 1.10,2013-01-27 06:34:00,
2013-01-27 01:49:00,19.3,15.0,30.47,WNW,290,0.0,-999.0,83,-99.99,,,0.00,weatherlink.com 1.10,2013-01-27 06:49:00,
2013-01-27 02:04:00,18.8,15.0,30.47,WNW,290,0.0,-999.0,83,-99.99,,,0.00,weatherlink.com 1.10,2013-01-27 07:04:00,
2013-01-27 02:19:00,17.9,14.0,30.48,WNW,290,0.0,-999.0,83,-99.99,,,0.00,weatherlink.com 1.10,2013-01-27 07:19:00,
2013-01-27 02:34:00,17.0,13.0,30.48,WNW,290,1.0,-999.0,84,-99.99,,,0.00,weatherlink.com 1.10,2013-01-27 07:34:00,
2013-01-27 02:49:00,16.7,13.0,30.46,WNW,290,2.0,-999.0,85,-99.99,,,0.00,weatherlink.com 1.10,2013-01-27 07:49:00,
2013-01-27 03:04:00,16.7,12.0,30.47,WNW,290,0.0,-999.0,83,-99.99,,,0.00,weatherlink.com 1.10,2013-01-27 08:04:00,
2013-01-27 03:20:00,16.4,12.0,30.47,WNW,290,0.0,-999.0,84,-99.99,,,0.00,weatherlink.com 1.10,2013-01-27 08:20:00,
2013-01-27 03:34:00,16.3,12.0,30.48,WNW,290,0.0,-999.0,84,-99.99,,,0.00,weatherlink.com 1.10,2013-01-27 08:34:00,
2013-01-27 03:50:00,16.1,12.0,30.47,WNW,290,1.0,-999.0,84,-99.99,,,0.00,weatherlink.com 1.10,2013-01-27 08:50:00,
2013-01-27 04:05:00,15.8,12.0,30.46,WNW,290,1.0,-999.0,85,-99.99,,,0.00,weatherlink.com 1.10,2013-01-27 09:05:00,
2013-01-27 04:20:00,15.9,12.0,30.47,WNW,290,0.0,-999.0,85,-99.99,,,0.00,weatherlink.com 1.10,2013-01-27 09:20:00,
2013-01-27 04:35:00,16.1,12.0,30.47,WNW,290,0.0,-999.0,85,-99.99,,,0.00,weatherlink.com 1.10,2013-01-27 09:35:00,
2013-01-27 04:50:00,17.0,13.0,30.48,WNW,290,0.0,-999.0,85,-99.99,,,0.00,weatherlink.com 1.10,2013-01-27 09:50:00,
2013-01-27 05:05:00,18.0,14.0,30.47,WNW,290,1.0,-999.0,85,-99.99,,,0.00,weatherlink.com 1.10,2013-01-27 10:05:00,
2013-01-27 05:20:00,18.5,15.0,30.49,WNW,290,2.0,-999.0,84,-99.99,,,0.00,weatherlink.com 1.10,2013-01-27 10:20:00,
2013-01-27 05:35:00,18.9,15.0,30.47,WNW,290,0.0,-999.0,83,-99.99,,,0.00,weatherlink.com 1.10,2013-01-27 10:35:00,
2013-01-27 05:50:00,19.0,14.0,30.48,WNW,290,1.0,-999.0,82,-99.99,,,0.00,weatherlink.com 1.10,2013-01-27 10:50:00,
2013-01-27 06:05:00,19.0,15.0,30.46,WNW,290,2.0,-999.0,83,-99.99,,,0.00,weatherlink.com 1.10,2013-01-27 11:05:00,
2013-01-27 06:21:00,19.0,15.0,30.47,WNW,290,0.0,-999.0,83,-99.99,,,0.00,weatherlink.com 1.10,2013-01-27 11:21:00,
2013-01-27 06:36:00,19.8,15.0,30.49,WNW,290,0.0,-999.0,82,-99.99,,,0.00,weatherlink.com 1.10,2013-01-27 11:36:00,
2013-01-27 06:51:00,20.3,15.0,30.48,WNW,290,0.0,-999.0,81,-99.99,,,0.00,weatherlink.com 1.10,2013-01-27 11:51:00,
2013-01-27 07:06:00,20.2,16.0,30.48,WNW,290,0.0,-999.0,82,-99.99,,,0.00,weatherlink.com 1.10,2013-01-27 12:06:00,
2013-01-27 07:21:00,20.2,16.0,30.47,WNW,290,1.0,-999.0,82,-99.99,,,0.00,weatherlink.com 1.10,2013-01-27 12:21:00,
2013-01-27 07:36:00,19.8,15.0,30.47,WNW,290,1.0,-999.0,82,-99.99,,,0.00,weatherlink.com 1.10,2013-01-27 12:36:00,
2013-01-27 07:51:00,19.0,14.0,30.48,WNW,290,2.0,-999.0,82,-99.99,,,0.00,weatherlink.com 1.10,2013-01-27 12:51:00,
2013-01-27 08:06:00,18.9,14.0,30.48,WNW,290,4.0,-999.0,82,-99.99,,,0.00,weatherlink.com 1.10,2013-01-27 13:06:00,
2013-01-27 08:21:00,18.9,14.0,30.49,WNW,290,2.0,-999.0,81,-99.99,,,0.00,weatherlink.com 1.10,2013-01-27 13:21:00,
2013-01-27 08:36:00,19.2,14.0,30.49,WNW,290,4.0,-999.0,81,-99.99,,,0.00,weatherlink.com 1.10,2013-01-27 13:36:00,
2013-01-27 08:51:00,19.0,14.0,30.50,WNW,290,1.0,-999.0,80,-99.99,,,0.00,weatherlink.com 1.10,2013-01-27 13:51:00,
2013-01-27 09:06:00,19.8,14.0,30.49,WNW,290,4.0,-999.0,79,-99.99,,,0.00,weatherlink.com 1.10,2013-01-27 14:06:00,
2013-01-27 09:21:00,20.6,15.0,30.49,SSW,209,5.0,-999.0,78,-99.99,,,0.00,weatherlink.com 1.10,2013-01-27 14:21:00,
2013-01-27 09:37:00,21.5,15.0,30.49,SSE,153,2.0,-999.0,77,-99.99,,,0.00,weatherlink.com 1.10,2013-01-27 14:37:00,
2013-01-27 09:52:00,21.9,15.0,30.48,SE,146,7.0,-999.0,76,-99.99,,,0.00,weatherlink.com 1.10,2013-01-27 14:52:00,
2013-01-27 10:07:00,22.4,16.0,30.48,SE,139,5.0,-999.0,75,-99.99,,,0.00,weatherlink.com 1.10,2013-01-27 15:07:00,
2013-01-27 10:22:00,22.9,16.0,30.47,SE,130,2.0,-999.0,75,-99.99,,,0.00,weatherlink.com 1.10,2013-01-27 15:22:00,
2013-01-27 10:37:00,23.8,17.0,30.48,SE,126,4.0,-999.0,74,-99.99,,,0.00,weatherlink.com 1.10,2013-01-27 15:37:00,
2013-01-27 10:52:00,24.8,18.0,30.48,SE,131,4.0,-999.0,74,-99.99,,,0.00,weatherlink.com 1.10,2013-01-27 15:52:00,
2013-01-27 11:07:00,25.5,18.0,30.47,SE,135,2.0,-999.0,72,-99.99,,,0.00,weatherlink.com 1.10,2013-01-27 16:07:00,
2013-01-27 11:22:00,26.1,19.0,30.47,SSE,148,2.0,-999.0,73,-99.99,,,0.00,weatherlink.com 1.10,2013-01-27 16:22:00,
2013-01-27 11:38:00,26.5,19.0,30.47,SSE,148,2.0,-999.0,72,-99.99,,,0.00,weatherlink.com 1.10,2013-01-27 16:38:00,
2013-01-27 11:52:00,27.1,20.0,30.47,SSE,155,2.0,-999.0,73,-99.99,,,0.00,weatherlink.com 1.10,2013-01-27 16:52:00,
2013-01-27 12:08:00,27.6,20.0,30.47,SSE,156,5.0,-999.0,72,-99.99,,,0.00,weatherlink.com 1.10,2013-01-27 17:08:00,
2013-01-27 12:23:00,28.2,20.0,30.45,SSE,154,9.0,-999.0,72,-99.99,,,0.00,weatherlink.com 1.10,2013-01-27 17:23:00,
2013-01-27 12:38:00,28.6,21.0,30.44,SE,134,4.0,-999.0,72,-99.99,,,0.00,weatherlink.com 1.10,2013-01-27 17:38:00,
2013-01-27 12:53:00,29.2,21.0,30.43,SE,135,5.0,-999.0,72,-99.99,,,0.00,weatherlink.com 1.10,2013-01-27 17:53:00,
2013-01-27 13:08:00,29.6,21.0,30.42,SE,128,4.0,-999.0,71,-99.99,,,0.00,weatherlink.com 1.10,2013-01-27 18:08:00,
2013-01-27 13:23:00,30.0,22.0,30.41,SE,135,6.0,-999.0,71,-99.99,,,0.00,weatherlink.com 1.10,2013-01-27 18:23:00,
2013-01-27 13:38:00,30.5,22.0,30.41,SE,136,5.0,-999.0,71,-99.99,,,0.00,weatherlink.com 1.10,2013-01-27 18:38:00,
2013-01-27 13:53:00,30.8,22.0,30.40,SE,134,6.0,-999.0,71,-99.99,,,0.00,weatherlink.com 1.10,2013-01-27 18:53:00,
2013-01-27 14:09:00,30.7,23.0,30.39,SE,134,2.0,-999.0,72,-99.99,,,0.00,weatherlink.com 1.10,2013-01-27 19:09:00,
2013-01-27 14:24:00,31.2,23.0,30.38,SE,135,4.0,-999.0,71,-99.99,,,0.00,weatherlink.com 1.10,2013-01-27 19:24:00,
2013-01-27 14:39:00,31.5,23.0,30.37,SE,130,6.0,-999.0,72,-99.99,,,0.00,weatherlink.com 1.10,2013-01-27 19:39:00,
2013-01-27 14:54:00,32.2,24.0,30.36,SE,130,9.0,-999.0,72,-99.99,,,0.00,weatherlink.com 1.10,2013-01-27 19:54:00,
2013-01-27 15:09:00,32.2,24.0,30.35,SE,133,4.0,-999.0,71,-99.99,,,0.00,weatherlink.com 1.10,2013-01-27 20:09:00,
2013-01-27 15:24:00,32.0,24.0,30.33,East,93,8.0,-999.0,73,-99.99,,,0.00,weatherlink.com 1.10,2013-01-27 20:24:00,
2013-01-27 15:39:00,31.3,25.0,30.32,East,101,7.0,-999.0,76,-99.99,,,0.00,weatherlink.com 1.10,2013-01-27 20:39:00,
2013-01-27 15:54:00,31.4,24.0,30.34,ESE,104,6.0,-999.0,75,-99.99,,,0.00,weatherlink.com 1.10,2013-01-27 20:54:00,
2013-01-27 16:09:00,31.8,24.0,30.34,SE,130,5.0,-999.0,73,-99.99,,,0.00,weatherlink.com 1.10,2013-01-27 21:09:00,
2013-01-27 16:25:00,31.9,25.0,30.34,SE,127,5.0,-999.0,75,-99.99,,,0.00,weatherlink.com 1.10,2013-01-27 21:25:00,
2013-01-27 16:39:00,32.0,25.0,30.33,ESE,119,6.0,-999.0,75,-99.99,,,0.00,weatherlink.com 1.10,2013-01-27 21:39:00,
2013-01-27 16:55:00,31.9,25.0,30.33,ESE,113,4.0,-999.0,75,-99.99,,,0.00,weatherlink.com 1.10,2013-01-27 21:55:00,
2013-01-27 17:10:00,31.8,25.0,30.32,ESE,107,6.0,-999.0,76,-99.99,,,0.00,weatherlink.com 1.10,2013-01-27 22:10:00,
2013-01-27 17:25:00,31.9,25.0,30.32,East,101,4.0,-999.0,76,-99.99,,,0.00,weatherlink.com 1.10,2013-01-27 22:25:00,
2013-01-27 17:40:00,31.9,25.0,30.32,East,93,5.0,-999.0,77,-99.99,,,0.00,weatherlink.com 1.10,2013-01-27 22:40:00,
2013-01-27 17:55:00,31.8,26.0,30.31,East,98,8.0,-999.0,78,-99.99,,,0.00,weatherlink.com 1.10,2013-01-27 22:55:00,
2013-01-27 18:10:00,31.6,26.0,30.28,East,101,6.0,-999.0,79,-99.99,,,0.00,weatherlink.com 1.10,2013-01-27 23:10:00,
2013-01-27 18:25:00,31.7,26.0,30.29,ESE,107,7.0,-999.0,79,-99.99,,,0.00,weatherlink.com 1.10,2013-01-27 23:25:00,
2013-01-27 18:40:00,31.8,26.0,30.29,ESE,103,6.0,-999.0,78,-99.99,,,0.00,weatherlink.com 1.10,2013-01-27 23:40:00,
2013-01-27 18:56:00,31.9,25.0,30.31,ESE,103,4.0,-999.0,77,-99.99,,,0.00,weatherlink.com 1.10,2013-01-27 23:56:00,
2013-01-27 19:10:00,32.0,26.0,30.33,ESE,103,4.0,-999.0,77,-99.99,,,0.00,weatherlink.com 1.10,2013-01-28 00:10:00,
2013-01-27 19:25:00,31.9,26.0,30.32,ESE,102,2.0,-999.0,78,-99.99,,,0.00,weatherlink.com 1.10,2013-01-28 00:25:00,
2013-01-27 19:40:00,31.6,27.0,30.32,East,93,5.0,-999.0,82,-99.99,,,0.00,weatherlink.com 1.10,2013-01-28 00:40:00,
2013-01-27 19:56:00,31.5,27.0,30.32,East,94,1.0,-999.0,84,-99.99,,,0.00,weatherlink.com 1.10,2013-01-28 00:56:00,
2013-01-27 20:11:00,31.4,27.0,30.31,East,94,2.0,-999.0,84,-99.99,,,0.00,weatherlink.com 1.10,2013-01-28 01:11:00,
2013-01-27 20:26:00,31.2,28.0,30.30,East,99,4.0,-999.0,86,-99.99,,,0.00,weatherlink.com 1.10,2013-01-28 01:26:00,
2013-01-27 20:41:00,30.8,28.0,30.27,ESE,119,5.0,-999.0,89,-99.99,,,0.00,weatherlink.com 1.10,2013-01-28 01:41:00,
2013-01-27 20:56:00,31.2,28.0,30.26,SE,132,11.0,-999.0,89,-99.99,,,0.00,weatherlink.com 1.10,2013-01-28 01:56:00,
2013-01-27 21:11:00,31.5,28.0,30.27,SE,124,6.0,-999.0,88,-99.99,,,0.00,weatherlink.com 1.10,2013-01-28 02:11:00,
2013-01-27 21:26:00,31.7,29.0,30.26,SE,128,5.0,-999.0,88,-99.99,,,0.00,weatherlink.com 1.10,2013-01-28 02:26:00,
2013-01-27 21:41:00,32.0,29.0,30.23,SE,132,8.0,-999.0,88,-99.99,,,0.00,weatherlink.com 1.10,2013-01-28 02:41:00,
2013-01-27 21:57:00,32.3,29.0,30.23,SE,137,2.0,-999.0,87,-99.99,,,0.00,weatherlink.com 1.10,2013-01-28 02:57:00,
2013-01-27 22:11:00,32.5,29.0,30.22,SE,134,4.0,-999.0,88,-99.99,,,0.00,weatherlink.com 1.10,2013-01-28 03:11:00,
2013-01-27 22:26:00,32.7,30.0,30.20,ESE,123,12.0,-999.0,89,-99.99,,,0.00,weatherlink.com 1.10,2013-01-28 03:26:00,
2013-01-27 22:42:00,33.1,30.0,30.19,SE,132,7.0,-999.0,89,-99.99,,,0.00,weatherlink.com 1.10,2013-01-28 03:42:00,
2013-01-27 22:57:00,33.4,31.0,30.18,SE,130,4.0,-999.0,90,-99.99,,,0.00,weatherlink.com 1.10,2013-01-28 03:57:00,
2013-01-27 23:12:00,33.7,31.0,30.16,SE,138,6.0,-999.0,90,-99.99,,,0.00,weatherlink.com 1.10,2013-01-28 04:12:00,
2013-01-27 23:27:00,33.8,32.0,30.15,SE,137,7.0,-999.0,91,-99.99,,,0.00,weatherlink.com 1.10,2013-01-28 04:27:00,
2013-01-27 23:42:00,33.9,32.0,30.14,SSE,165,6.0,-999.0,92,-99.99,,,0.00,weatherlink.com 1.10,2013-01-28 04:42:00,
2013-01-27 23:57:00,34.1,32.0,30.14,SE,144,8.0,-999.0,92,-99.99,,,0.00,weatherlink.com 1.10,2013-01-28 04:57:00,